NUSTAR

Last updated on Thu Apr 09 2026 00:03:38 GMT+0000 (Coordinated Universal Time)

1 38358U 12031A 26098.58339120 .00009645 00000+0 55182-3 0 9997 2 38358 6.0249 195.9669 0007991 159.2786 355.4019 15.08136206 1795
UTC large
Height (km)
Speed (km/s)
/
Latitude / Longitude
Inclination (degrees)
Orbital Period (minutes)
Azimuth
Elevation
Range (km)
Doppler Factor

Next 0 passes for location: London (51.5072 / 0.1276)

Sorry there are no passes over London.